Location: ??????
(55.2000°N, 38.3000°E)
Time: 17:51:57
(UTC+00:00)

Cosmos 2219 Rocket - Pass Details

Date: 15 November 2025
Orbit: 825 x 846 km, 71.0° (Epoch: 14 December)

Event Time Altitude Azimuth Distance (km) Brightness Sun altitude
Exits shadow 01:02:59 33° 17° (NNE) 1,399 3.5 -33.2°
Drops below altitude 10° 01:06:08 10° 30° (NNE) 2,482 5.1 -32.8°
Sets 01:08:39 0° 35° (NE) 3,421 6.0 -32.5°
